Regional Weather Roundup
Issued by NWS Wakefield, VA

Home | Current Version | Previous Version | Graphics & Text | Print | Product List | Glossary On
Versions: 1 2 3 4 5 6 7 8 9 10 11 12 13 14 15 16 17 18 19 20 21 22 23 24 25 26 27 28 29 30 31 32 33 34 35 36 37 38 39 40 41 42 43 44 45 46 47 48 49 50
065
ASUS41 KAKQ 120815
RWRAKQ

REGIONAL WEATHER ROUNDUP
NATIONAL WEATHER SERVICE WAKEFIELD VA
300 AM EST FRI FEB 12 2016

Note: "fair" indicates few or no clouds below 12,000 feet with no
significant weather and/or obstructions to visibility. * = Denotes
station may not report precipitation (e.g., rain,snow,etc.),
thunder or fog.

VAZ042-051-052>054-056-120900-
NORTHERN VIRGINIA

CITY           SKY/WX    TMP DP  RH WIND       PRES   REMARKS
WASH NATIONAL  MOCLDY    21   3  45 NW6       30.34F
DULLES         FAIR      17   4  56 CALM      30.31F
FORT BELVOIR   FAIR      17   6  64 N1        30.33F
QUANTICO       FAIR      20  11  68 NW3       30.35F
FREDERICKSBRG* FAIR      19   8  62 CALM      30.32S
STAFFORD*      FAIR      14   9  80 CALM      30.36F
WARRENTON      FAIR      16  14  89 N3        30.30F
CULPEPER*      FAIR      16   8  72 CALM      30.32S
MANASSAS*      FAIR      16  12  86 CALM      30.33S
LEESBURG*      FAIR      19  12  73 NW14      30.31F WCI   6
WINCHESTER     FAIR      18   5  57 SW3       30.28S
FRONT ROYAL*   FAIR      18   5  57 CALM      30.27S
LURAY*         FAIR      14   9  79 CALM      30.26S
$$

VAZ048-049-060>072-079>083-120900-
CENTRAL AND SOUTH CENTRAL VIRGINIA

CITY           SKY/WX    TMP DP  RH WIND       PRES   REMARKS
RICHMOND       MOCLDY    20   9  62 CALM      30.33S
CHESTERFIELD*  FAIR      21  -2  35 NE3       30.33F
PETERSBURG*    FAIR      21   7  54 CALM      30.34S
HANOVER        FAIR      19   9  65 CALM      30.35S
TAPPAHANNOCK*  FAIR      18  11  73 CALM      30.34F
QUINTON*       FAIR      19  10  67 CALM      30.34S
CHARLOTTSVILLE FAIR      19   6  57 CALM      30.28S
GORDONSVILLE*  FAIR      18   9  68 CALM      30.30S
ORANGE*        FAIR      19  12  73 CALM      30.31F
LOUISA*        FAIR      19   9  63 CALM      30.29S
BUMPASS*       FAIR      18   8  63 CALM      30.31S
FARMVILLE*     MOCLDY    25   7  47 E3        30.29S
CREWE*         FAIR      23   4  43 CALM      30.30S
FORT PICKETT*  NOT AVBL
CHASE CITY*    CLOUDY    24   2  38 E3        30.30S
CLARKSVILLE*   CLOUDY    27   5  39 E7        30.30S
SOUTH HILL*    FAIR      21   6  52 CALM      30.36F
LAWRENCEVILLE* FAIR      21   6  52 CALM      30.32S
EMPORIA*       FAIR      21   5  49 CALM      30.35F
$$

VAZ088>098-120900-
SOUTHEAST VIRGINIA

CITY           SKY/WX    TMP DP  RH WIND       PRES   REMARKS
NORFOLK        FAIR      27   7  42 N9        30.33S
VIRGINIA BEACH FAIR      28  11  48 N7        30.33S
NORFOLK NAVAL  FAIR      26   8  46 N10       30.35S WCI  16
WEST POINT*    FAIR      19  10  68 CALM      30.36S
SALUDA*        FAIR      23   6  48 N8        30.34S
NEWPORT NEWS   FAIR      21   7  54 N5        30.34F
LANGLEY AFB    FAIR      22   9  57 N9        30.33S
FORT EUSTIS    FAIR      23   5  46 CALM      30.32F
WILLIAMSBURG*  FAIR      23   9  54 CALM      30.35S
HR EXEC AP*    FAIR      23   9  54 CALM      30.35S
FRANKLIN*      FAIR      21   6  52 CALM      30.34F
US460-WAKEFLD  FAIR      20   8  60 CALM      30.34F
$$

VAZ020-022-025-037-045-120900-
WEST CENTRAL AND SOUTHWEST VIRGINIA

CITY           SKY/WX    TMP DP  RH WIND       PRES   REMARKS
STAUNTON*      FAIR      15   9  79 CALM      30.25S
WAYNESBORO*    FAIR      12   4  73 CALM      30.22S
HOT SPRINGS VA FAIR       9   2  73 W7        29.99S
LYNCHBURG      CLOUDY    22   4  46 E3        30.27S
DANVILLE       CLOUDY    25   7  46 E6        30.29F
SOUTH BOSTON*  CLOUDY    23   9  53 NE3       30.30S
MARTINSVILLE   CLOUDY    23   6  47 SE5       30.28R
ROANOKE        FAIR      21   6  52 NE3       30.24F
BLACKSBURG     FAIR      20   9  63 CALM      30.18S
DUBLIN*        FAIR      19  11  70 CALM      30.17S
MARION*        MOCLDY    19  12  73 CALM      30.14S
HILLSVILLE*    CLOUDY    21  11  66 S3        30.10S
RICHLANDS*     FAIR      18   7  61 CALM      30.08F
WISE*          FAIR      21   7  53 SE3       30.10F
ABINGDON*      CLOUDY    26  14  60 E3        30.12F
$$

MDZ021>025-VAZ099-100-120900-
SOUTHERN MARYLAND AND THE DELMARVA PENINSULA

CITY           SKY/WX    TMP DP  RH WIND       PRES   REMARKS
PATUXENT RIVER PTCLDY    22   3  44 N12       30.33F WCI  10
BAY BRIDGE APT   N/A     21   1  42 NW9       30.33F
LEONARDTOWN    CLEAR     21   3  45 MISG        N/A
DOVER          CLEAR     20   6  56 W8        30.30S
GEORGETOWN     PTCLDY    19   5  54 CALM      30.32S
EASTON         MOCLDY    21   5  49 N7        30.36S
CAMBRIDGE      PTCLDY    21   3  45 NW7       30.32S
SALISBURY      PTCLDY    19   4  51 NW6       30.32S
OCEAN CITY     CLEAR     20   4  50 NW7       30.32F
WALLOPS ISLAND FAIR      19   5  54 NW6       30.34F
ACCOMACK*      FAIR      23   3  42 N6        30.33S
$$

NCZ012>017-030>032-120900-
NORTH CENTRAL AND EASTERN NORTH CAROLINA

CITY           SKY/WX    TMP DP  RH WIND       PRES   REMARKS
ROANOKE RAPIDS FAIR      25  10  54 NE5       30.32F
RALEIGH        MOCLDY    27   7  42 NE6       30.30S
ELIZABETH CITY CLEAR     27  14  58 N13       30.33S WCI  16
AHOSKIE*       PTCLDY    23   9  55 N5        30.34S
EDENTON*       CLEAR     27  12  54 CALM      30.34R
CURRITUCK*     CLEAR     29  18  61 N9        30.33S
KILL DEVIL HLS CLEAR     31  16  52 CALM      30.29S
MANTEO         CLEAR     31  17  55 N6        30.31S
CAPE HATTERAS  CLEAR     34  14  43 N5        30.31S
TARBORO*       PTSUNNY   24  15  69 N3        30.34S
GOLDSBORO      CLEAR     28  10  47 NE5       30.29S
WASHINGTON     MOCLDY    25  17  71 CALM      30.32S
GREENVILLE     CLOUDY    27  18  69 CALM      30.33R
NEW BERN       CLEAR     28  13  53 NE7       30.31F
WILMINGTON     CLOUDY    33  24  69 NE9       30.25F
$$

VAZ048-120900-
ELSEWHERE

CITY           SKY/WX    TMP DP  RH WIND       PRES   REMARKS
HARRISBURG PA  PTCLDY    16   4  59 W9        30.28R
BALTIMORE      CLOUDY    17   2  51 W3        30.32S
ANNAPOLIS      PTCLDY    21   5  50 NW5       30.32F
ANDREWS AFB    FAIR      20   2  45 NW12G21   30.29F WCI   8
PHILADELPHIA   CLEAR     19  -3  38 W9        30.30R
HENDERSON NC   MOCLDY    23   8  53 E5        30.29S
GREENSBORO     CLOUDY    26   5  40 E9        30.23F
ROCKY MOUNT    CLOUDY    25  13  60 NE8       30.32S
$$

VAZ100-120900-
MARINE

STATION/POSITION TIME  TEMP    WIND        PRES    WAVE   SWELL
                       AIR SEA DIR/SP/G            HT/PER HT/PER
                 (UTC) (F)     (DEG/KT/KT) (MB)    (FT/S) (FT/S)
BRANDYWINE LGT   0700   22     330/ 14/ 21 1026.1R
CAPE MAY NJ      0700   23 36  320/  8/ 14 1026.0R
LEWES DE         0700   23 38  290/ 15/ 18 1026.5F
15NM E FENWICK I 0750   24 43              1026.5R   4/ 6
OCEAN-CITY-INLET 0700   23 40  320/ 10/ 13 1026.1R
WACHAPREAGUE VA  0700   24 36  350/  6/ 10 1027.2S
THOMAS POINT MD  0800   22 36  320/ 11/ 13 1027.5F
GOOSES REEF MD   0800   24 37  330/ 16/ 17 1027.6F   1/ 3
COVE POINT MD    0700   22     350/ 12/ 17 1027.8F
SOLOMONS ISLAND  0700   24 39  340/ 15/ 20   N/A
BISHOPS HEAD MD  0700   22 31  330/  9/ 12 1026.4R
PINEY POINT MD   0700           10/  9/ 11   N/A
POTOMAC MD       0800   23 38  340/ 14/ 16 1026.1F   1/ 3
CAMBRIDGE MD     0700   24 37  320/ 15/ 20 1026.2F
LEWISETTA VA     0700   24 37  360/ 10/ 15 1027.0F
RAPPAHANNOCK LGT 0700          330/ 19/ 23 1027.2F
STINGRAY PT      0800   25 40  340/ 10/ 14 1027.4S   1/ 3
YORK RVR RNG VA  0700   26     360/ 13/ 16 1026.7F
YORKTOWN VA      0700   25 41  360/  9/ 11 1027.4S
JAMESTOWN VA     0800   23 41   10/  2/  4   N/A
DOMINION TERM VA 0700   26      10/  5/  8 1027.4R
KIPTOPEKE VA     0700      40   40/  4/  6   N/A
CHES BAY BRIDGE  0700   28 41  330/ 12/ 17 1026.8S
CAPE HENRY VA    0700   28      10/ 13/ 17   N/A
CHESAPEAKE LGHT  0700   28     360/ 15/ 17 1027.7R
WILLOUBY STN VA  0700   27     360/ 10/ 11 1028.0S
CAPE HENRY BUOY  0728      42                N/A     3/ 5
1ST LANDING BUOY 0800      41                N/A     2/ 3
CAPE CHARLES BUO 0726      42                N/A     3/ 4   2/14
OFFSHORE WE BUOY 0721      45                N/A     4/ 5   2/ 6
64NM E OF VA BCH 0750   31 48  340/ 14/ 19 1026.2R   5/ 7   3/ 7
DUCK PIER NC     0700   33      10/ 12/ 14 1025.8R
44100 DUCK FRF   0724      46                N/A     3/ 5
44056 DUCK FRF   0711      43                N/A     2/ 3
OREGON INLET NC  0700   31 40  310/  4/  6 1026.3F
HATTERAS NC      0700   36 46   10/ 11/ 12 1025.7F
DIAMOND SHLS NC  0750   40 71   10/ 10/ 14 1026.2F   3/ 8   3/ 8
$$




USA.gov is the U.S. government's official web portal to all federal, state and local government web resources and services.